MOLNIYA 3-27

Last updated on Sun Jun 25 2023 00:03:02 GMT+0000 (Coordinated Universal Time)

1 16393U 85117A 23174.70029618 -.00000204 00000+0 00000+0 0 9999 2 16393 64.1055 30.8918 7108246 246.2572 27.7191 2.12397406282081
UTC large
Height (km)
Speed (km/s)
/
Latitude / Longitude
Inclination (degrees)
Orbital Period (minutes)
Azimuth
Elevation
Range (km)
Doppler Factor

Next 0 passes for location: London (51.5072 / 0.1276)

Sorry there are no passes over London.